Location: Newark
(48.6461°N, 4.3644°W)
Time: 02:05:52
(UTC+00:00)

S-56A Canister/Altair - Pass Details

Date: 24 January 2020
Orbit: 633 x 2500 km, 38.9° (Epoch: 25 February)

Event Time Altitude Azimuth Distance (km) Brightness Sun altitude
Rises 01:52:06 0° 258° (WSW) 2,924 - -56.3°
Reaches altitude 10° 01:55:48 10° 225° (SW) 2,026 - -55.9°
Maximum altitude 01:57:28 12° 203° (SSW) 1,943 - -55.8°
Drops below altitude 10° 01:59:12 10° 181° (S) 2,125 - -55.6°
Sets 02:03:22 0° 150° (SSE) 3,274 - -55.1°
